Погода в Бресте

Поиск расширенной информации на нашем сайте:

Полезная информация:

Новости сайта



02.01.2020
Опубликован Долгосрочный прогноз погоды по городам России и ближнего зарубежья на январь 2020 года.
Карты: Прогноз на январь и февраль 2020 года, Сравнение прогнозируемой аномалии приземной температуры воздуха на январь 2020 года по разным моделям.




Погода в Бресте - сегодня

Время (UTC), дата Ветер
(°,м/с) 
Видим.   Явления Облачность Т
(°С)
Тd
(°С)
f(%) Тe
(°С)
Pmin
(гПа)
dP
(гПа)
Po
(мм)
O2
(г/м3)
Тmin Tmax R s Состояние
почвы
09 22.10.21 260 (З) 6-11{13}  30000 м    6/6 600 м 
[Sc]
+8.6 +1.5 61 +7  1009.7  2.7  744  290           
12 22.10.21 250 (З) 5-10{13}  30000 м    8/8 1350 м 
[Sc]
+10.6 +1.1 52 +9  1009.6  744  288           
15 22.10.21 240 (ЮЗ) 4{12}  30000 м    10/0 средняя 
[Ac As]
+10.1 +0.4 51 +9  1009  -0.6  744  289           
18 22.10.21 240 (ЮЗ) 5-10  20000 м  {ливн. осадки}  9/9 600 м 
[Sc]
+9.7 +0 51 +8  1008.5  -0.5  743  289    +11.1  0.1     
21 22.10.21 250 (З) 6-11{14}  30000 м  в посл. час ливневой дождь  9/9 600 м кучево-дожд. 
[Cb calv]
+9.5 -0.1 51 +8  1008.6  0.1  743  289           
00 23.10.21 260 (З) 5-10{14}  30000 м  в посл. час ливневой дождь  9/9 600 м кучево-дожд. 
[Cb calv]
+7.4 +3.4 76 +6  1009.9  1.1  744  291      0.0     
03 23.10.21 260 (З) 5{11}  30000 м    9/9 1500 м 
[Sc]
+6.6 +3.2 79 +5  1011.7  1.7  745  293      0.0     
06 23.10.21 260 (З) 5-10{11}  30000 м    10/10 800 м 
[Sc]
+6.7 +2.2 73 +5  1014  2.3  747  293  +6.2    0.0     
09 23.10.21 260 (З) 4-10{10}  30000 м    10/10 800 м 
[Sc]
+7.5 +2.4 70 +6  1016.1  2.1  749  293           
12 23.10.21 260 (З) 5{11}  20000 м    10/10 800 м 
[Sc]
+7 +4.7 85 +5  1017.9  1.7  750  294      0.2     
15 23.10.21 270 (З) 4{10}  10 км  слаб. дождь  10/10 700 м 
[Sc]
+6.4 +4.6 88 +5  1019.5  1.6  751  295           
18 23.10.21 290 (З) 20000 м  {дождь}  9/9 1260 м 
[Sc]
+6 +4.2 88 +6  1022.2  2.6  753  296    +8.5  0.6     
21 23.10.21 280 (З) 30000 м    3/3 1000 м 
[Sc]
+4.5 +3.2 91 +4  1024.7  2.3  755  299           
00 24.10.21 260 (З) 30000 м    1/1 1000 м 
[Sc]
+3.1 +2.2 94 +4  1026.7  1.9  756  301           
03 24.10.21 290 (З) 30000 м    10/10 1020 м 
[Sc]
+3.9 +3 94 +3  1028.3  1.6  758  300           
06 24.10.21 270 (З) 30000 м    9/9 1500 м 
[Sc]
+3.3 +2.3 93 +3  1030.1  1.8  759  302  +1.8         
09 24.10.21 300 (СЗ) 30000 м    6/3 2000 м верхняя 
[Sc|Cs]
+6.7 +2.6 75 +6  1032.1  2.2  761  299           
12 24.10.21 280 (З) 30000 м    6/6 1440 м 
[Sc]
+7.7 +0.6 61 +8  1032.5  0.4  761  298           
15 24.10.21 тихо ()   20000 м    4/3 1000 м верхняя 
[Sc|Cs]
+7.3 +0.3 61 +7  1032.6  0.1  761  299           
18 24.10.21 тихо ()   10 км    8/0 верхняя 
[Cs]
+3.6 +1.1 84 +4  1033.4  0.5  761  303    +9       
21 24.10.21 тихо ()   8000 м  дымка  ясно 
+1.1 +0.7 97 +1  1033.6  761  305           
00 25.10.21 тихо ()   8000 м  дымка  ясно 
+0.5 +0.4 99 +1  1033.4  -0.2  761  306           
03 25.10.21 тихо ()   3400 м  дымка  ясно 
+0 -0.3 98 1032.7  -0.7  761  306           
06 25.10.21 170 (Ю) 12000 м    3/0 верхняя 
[Ci fib]
+1.5 +1.1 97 +2  1032  -0.6  760  304  -1.1         
09 25.10.21 180 (Ю) 30000 м    ясно 
+7.7 +1.1 63 +7  1030.9  -0.7  760  298           
Время (UTC), дата Ветер
(°,м/с) 
Видим.   Явления Облачность Т
(°С)
Тd
(°С)
f(%) Тe
(°С)
Pmin
(гПа)
dP
(гПа)
Po
(мм)
O2
(г/м3)
Тmin Tmax R s Состояние
почвы

Для получения пояснительной информации подведите курсор к названию столбца.

ПОГОДА в Бресте - архив

Всё, что Вы хотите узнать о погоде в Бресте - удобно и подробно!

Выберите нужную дату (начиная с 1 января 2019* года) и нажмите кнопку "Найти".
Будут отображены архивные сводки погоды по пункту Брест, начиная с указанной даты.


Отображать данные в формате CSV (для использования в таблицах Excel)


Внимание! Наш архив погоды предназначен исключительно для личного некоммерческого использования в познавательных целях. Если Вам необходимы официальные справки о состоянии погоды (для производственных, юридических, коммерческих и т.п. целей), обращайтесь в органы Росгидромета.

*Примечание: данная дата относится к архиву по метеостанциям СССР (Россия, СНГ, Балтия).
Архив по метеостанциям Зарубежной Европы и Азии (кроме Китая) хранится 10 дней, по другим регионам земного шара (Китай, Африка, Америка, Австралия, Океания) - 1 день.

Брест - район местоположения метеостанции


Название, широта, долгота, высота метеостанции:
Брест 52.1°ш. 23.7°д. 146 м над ур. моря [Беларусь]

Дополнительная информация

В oтличие oт бoльшинства пoгoдных сайтoв мы публикуем пoдрoбную метеoинфoрмацию в детальнoм прoфессиoнальнoм фoрмате.

Характеристики температуры и влажнoсти вoздуха измеряются на высoте 2 м в тени вдали oт зданий и деревьев.
Скoрoсть ветра измеряется на высoте 10 м (на урoвне рoста челoвека скoрoсть ветра ниже в 1.5-2 раза). Если метеoстанция нахoдится в гoрoде или в лесу, тo скoрoсть ветра занижена на 2-4 м/с пo сравнению с oткрытым местoм. Скoрoсть ветра над акватoриями крупных рек и oзёр, а также на вершинах хoлмoв на 2-5 м/с выше, чем в oбычных услoвиях.
Атмoсфернoе давление в разных тoчках местнoсти мoжет значительнo oтличаться oт давления на метеoстанции, в зависимoсти oт услoвий рельефа (при пoдъёме на 10 м давление пoнижается примернo на 1 мм рт.ст.).